Location: Laura�t
(43.9341°N, 0.2497°E)
Time: 22:35:24
(UTC+00:00)

Cosmos 2322 - Pass Details

Date: 03 March 2021
Orbit: 842 x 853 km, 71.0° (Epoch: 17 April)

Event Time Altitude Azimuth Distance (km) Brightness Sun altitude
Rises 19:42:19 0° 199° (SSW) 3,407 7.0 -20.9°
Reaches altitude 10° 19:44:45 10° 199° (SSW) 2,475 6.2 -21.3°
Maximum altitude 19:50:27 80° 113° (ESE) 871 3.6 -22.3°
Drops below altitude 10° 19:56:10 10° 27° (NNE) 2,489 6.0 -23.3°
Sets 19:58:38 0° 27° (NNE) 3,428 6.7 -23.8°
